Location: Oak Glen
(34.0495°N, 116.9470°E)
Time: 05:03:11
(UTC-08:00)

Vanguard 1 Rocket - All Passes

Search period start: 16 December 2017 00:00
Search period end: 26 December 2017 00:00
Orbit: 656 x 4222 km, 34.3° (Epoch: 15 December)

Date Brightness Start Highest point End Pass type
(mag) Time Alt. Az. Time Alt. Az. Time Alt. Az.
16 Dec - 01:56:35 10° W 02:06:35 90° S 02:26:58 10° E visible
16 Dec - 04:22:06 10° W 04:36:56 82° SSW 05:02:31 10° ESE visible
16 Dec - 06:49:36 10° WNW 07:08:41 52° SW 07:33:14 10° SE visible
16 Dec - 09:24:06 10° W 09:39:17 20° SW 09:54:41 10° S visible
16 Dec - 22:23:45 10° SSW 22:29:01 29° SE 22:37:27 10° E daylight
17 Dec - 00:46:06 10° WSW 00:54:11 81° SSE 01:10:49 10° E daylight
17 Dec - 03:10:53 10° W 03:23:02 89° S 03:46:25 10° ESE visible
17 Dec - 05:37:09 10° WNW 05:54:10 64° SSW 06:19:50 10° SE visible
17 Dec - 08:07:14 10° W 08:25:26 32° SW 08:45:58 10° S visible
17 Dec - 21:16:39 10° SSE 21:18:54 12° SE 21:21:33 10° ESE daylight
17 Dec - 23:36:01 10° SW 23:42:37 62° SSE 23:55:28 10° ENE daylight
18 Dec - 02:00:02 10° W 02:09:52 89° N 02:29:56 10° E visible
18 Dec - 04:25:28 10° WNW 04:39:55 76° SSW 05:05:04 10° ESE visible
18 Dec - 06:53:10 10° W 07:11:14 44° SW 07:34:44 10° SSE visible
18 Dec - 09:31:14 10° WSW 09:41:45 14° SW 09:52:29 10° SSW visible
18 Dec - 22:26:29 10° SSW 22:31:50 38° SE 22:40:51 10° E daylight
19 Dec - 00:49:30 10° WSW 00:57:27 87° S 01:13:48 10° E daylight
19 Dec - 03:14:17 10° W 03:26:12 85° SSW 03:49:13 10° ESE visible
19 Dec - 05:40:33 10° WNW 05:56:57 56° SSW 06:21:46 10° SE visible
19 Dec - 08:11:50 10° W 08:27:55 25° SW 08:46:10 10° S visible
19 Dec - 21:18:01 10° S 21:21:36 18° SE 21:26:20 10° E daylight
19 Dec - 23:39:17 10° WSW 23:45:46 72° SSE 23:58:30 10° E daylight
20 Dec - 02:03:29 10° W 02:13:08 90° N 02:32:53 10° E visible
20 Dec - 04:28:50 10° WNW 04:42:52 68° SSW 05:07:22 10° SE visible
20 Dec - 06:57:00 10° W 07:13:50 36° SW 07:35:46 10° SSE visible
20 Dec - 22:29:28 10° SW 22:34:49 48° SSE 22:44:06 10° E daylight
21 Dec - 00:52:57 10° W 01:00:45 89° NNW 01:16:48 10° E daylight
21 Dec - 03:17:42 10° W 03:29:20 79° SSW 03:51:52 10° ESE visible
21 Dec - 05:44:05 10° W 05:59:43 48° SSW 06:23:21 10° SSE visible
21 Dec - 08:17:28 10° W 08:30:33 18° SW 08:45:14 10° S visible
21 Dec - 21:20:19 10° SSW 21:24:26 25° SE 21:30:14 10° E daylight
21 Dec - 23:42:39 10° WSW 23:49:02 82° SSE 00:01:33 10° E daylight
22 Dec - 02:06:56 10° W 02:16:24 87° S 02:35:47 10° ESE visible
22 Dec - 04:32:16 10° W 04:45:50 60° SSW 05:09:25 10° SE visible
22 Dec - 07:01:15 10° W 07:16:32 29° SW 07:36:14 10° S visible
22 Dec - 22:32:38 10° SW 22:37:56 60° SSE 22:47:18 10° E daylight
23 Dec - 00:56:25 10° W 01:04:05 88° N 01:19:50 10° E daylight
23 Dec - 03:21:06 10° W 03:32:26 71° SSW 03:54:20 10° ESE visible
23 Dec - 05:47:50 10° W 06:02:33 39° SSW 06:24:32 10° SSE visible
23 Dec - 08:25:47 10° WSW 08:33:24 12° SW 08:41:36 10° SSW visible
23 Dec - 21:23:02 10° SSW 21:27:24 34° SE 21:33:48 10° E daylight
23 Dec - 23:46:06 10° W 23:52:22 88° S 00:04:37 10° E daylight
24 Dec - 02:10:22 10° W 02:19:39 82° SSW 02:38:36 10° ESE visible
24 Dec - 04:35:47 10° W 04:48:48 51° SSW 05:11:09 10° SE visible
24 Dec - 07:06:13 10° W 07:19:23 22° SW 07:35:52 10° S visible
24 Dec - 20:14:24 10° S 20:17:09 15° SE 20:20:18 10° ESE daylight
24 Dec - 22:35:57 10° WSW 22:41:11 72° SSE 22:50:26 10° E daylight
25 Dec - 00:59:54 10° W 01:07:26 90° S 01:22:51 10° E daylight
25 Dec - 03:24:33 10° W 03:35:32 62° SSW 03:56:34 10° SE visible
25 Dec - 05:51:53 10° W 06:05:28 31° SW 06:25:13 10° SSE visible
25 Dec - 21:26:02 10° SW 21:30:31 45° SSE 21:37:11 10° E daylight
